Regional Weather Roundup
Issued by NWS

Home | Current Version | Previous Version | Text Only | Print | Product List | Glossary On
Versions: 1 2 3 4 5 6 7 8 9 10 11 12 13 14 15 16 17 18 19 20 21 22 23 24 25 26 27 28 29 30 31 32 33 34 35 36 37 38 39 40 41 42 43 44 45 46 47 48 49 50
000
ASUS43 KLMK 302010
RWRKY
KENTUCKY REGIONAL WEATHER ROUNDUP
NATIONAL WEATHER SERVICE LOUISVILLE KY
400 PM EDT TUE SEP 30 2014

NOTE "FAIR" INDICATES FEW OR NO CLOUDS BELOW 12,000 FEET
WITH NO SIGNIFICANT WEATHER AND/OR OBSTRUCTIONS TO VISIBILITY.

KYZ001>023-026-027-061>063-070>075-302100-
WESTERN AND SOUTH CENTRAL KENTUCKY

CITY           SKY/WX    TMP DP  RH WIND       PRES   REMARKS
PADUCAH        MOSUNNY   86  53  32 VRB5      29.90F
HENDERSON      NOT AVBL
OWENSBORO      MOSUNNY   86  54  33 CALM      29.89F
HOPKINSVILLE   MOSUNNY   86  52  31 VRB3      29.89F
BOWLING GREEN  SUNNY     86  49  27 CALM      29.90F
GLASGOW        SUNNY     85  49  28 W5        29.91S
$$

KYZ024-025-028>034-038-045-046-053-302100-
NORTH CENTRAL KENTUCKY

CITY           SKY/WX    TMP DP  RH WIND       PRES   REMARKS
LOUISVILLE/SDF MOSUNNY   83  55  38 W12       29.88F
LOUISVILLE/LOU PTSUNNY   84  56  38 W12       29.89F
FORT KNOX      MOSUNNY   82  53  37 NW8       29.89F
$$

KYZ035>037-039>044-047>052-055>060-089>105-302100-
NORTHEAST KENTUCKY

CITY           SKY/WX    TMP DP  RH WIND       PRES   REMARKS
LEXINGTON      MOSUNNY   84  54  35 W7        29.90F
COVINGTON      MOSUNNY   77  57  50 N13       29.91S
FRANKFORT      MOSUNNY   81  53  37 NW9       29.89F
$$

KYZ054-064>069-076>088-106>120-302100-
SOUTHEAST KENTUCKY

CITY           SKY/WX    TMP DP  RH WIND       PRES   REMARKS
JACKSON        SUNNY     79  56  45 CALM      29.92F
LONDON         MOSUNNY   83  52  34 NE5       29.93F
SOMERSET       MOSUNNY   81  46  30 CALM      29.93S
MIDDLESBORO    SUNNY     80  54  40 N3        29.92F
MONTICELLO     CLEAR     84  52  33 VRB7      29.94F
$$



USA.gov is the U.S. government's official web portal to all federal, state and local government web resources and services.